This is the latest recevied weather packets stored in our database for station/object SV7GBF-2. If no packets are shown the sender has not sent any weather packets the latest 10 day(s).
| Time | Temp. | Humidity | Pressure | Rain* | Wind** | Luminosity | Snow |
|---|---|---|---|---|---|---|---|
| 1788271444 | 30.56° C | 23% | 1015 hPa | - | - | - | - |
| 1788270844 | 30.56° C | 23% | 1014 hPa | - | - | - | - |
| 1788270245 | 31.67° C | 21% | 1014 hPa | - | - | - | - |
| 1788269644 | 31.67° C | 22% | 1015 hPa | - | - | - | - |
| 1788269044 | 31.67° C | 22% | 1015 hPa | - | - | - | - |
| 1788268445 | 31.11° C | 25% | 1015 hPa | - | - | - | - |
| 1788267846 | 31.67° C | 24% | 1015 hPa | - | - | - | - |
| 1788267243 | 31.67° C | 26% | 1015 hPa | - | - | - | - |
| 1788266645 | 31.11° C | 28% | 1015 hPa | - | - | - | - |
| 1788266044 | 30.56° C | 28% | 1015 hPa | - | - | - | - |
| 1788265444 | 30.56° C | 28% | 1015 hPa | - | - | - | - |
| 1788264845 | 30.56° C | 28% | 1015 hPa | - | - | - | - |
| 1788264243 | 30° C | 29% | 1015 hPa | - | - | - | - |
| 1788263643 | 30.56° C | 29% | 1015 hPa | - | - | - | - |
| 1788262443 | 30° C | 31% | 1015 hPa | - | - | - | - |
| 1788261244 | 29.44° C | 33% | 1016 hPa | - | - | - | - |
| 1788260643 | 29.44° C | 34% | 1016 hPa | - | - | - | - |
| 1788260043 | 29.44° C | 33% | 1016 hPa | - | - | - | - |
| 1788259444 | 29.44° C | 36% | 1016 hPa | - | - | - | - |
| 1788258243 | 28.89° C | 39% | 1016 hPa | - | - | - | - |
| 1788257645 | 28.89° C | 39% | 1016 hPa | - | - | - | - |
| 1788257044 | 28.89° C | 38% | 1016 hPa | - | - | - | - |
| 1788255844 | 28.89° C | 40% | 1016 hPa | - | - | - | - |
| 1788255243 | 28.33° C | 41% | 1016 hPa | - | - | - | - |
| 1788253444 | 27.78° C | 42% | 1016 hPa | - | - | - | - |
* Rain since midnight (hover to see other rain measurements)
** Current wind speed in m/s (hover to see current wind gust speed)